TimeEST,TemperatureF,Dew PointF,Humidity,Sea Level PressureIn,VisibilityMPH,Wind Direction,Wind SpeedMPH,Gust SpeedMPH,PrecipitationIn,Events,Conditions,WindDirDegrees,DateUTC
12:51 AM,43.0,26.1,51,30.24,10.0,South,4.6,-,N/A,,Clear,190,2012-11-10 05:51:00
1:51 AM,39.2,26.6,61,30.24,10.0,SSE,3.5,-,N/A,,Clear,160,2012-11-10 06:51:00
2:51 AM,41.0,25.0,53,30.25,10.0,South,3.5,-,N/A,,Clear,190,2012-11-10 07:51:00
3:51 AM,42.1,21.9,45,30.26,10.0,South,3.5,-,N/A,,Clear,170,2012-11-10 08:51:00
4:51 AM,44.1,21.0,40,30.28,10.0,Calm,Calm,-,N/A,,Clear,0,2012-11-10 09:51:00
5:51 AM,39.0,21.9,50,30.33,10.0,Calm,Calm,-,N/A,,Clear,0,2012-11-10 10:51:00
6:51 AM,39.9,19.9,45,30.36,10.0,Calm,Calm,-,N/A,,Clear,0,2012-11-10 11:51:00
7:51 AM,44.1,24.1,45,30.36,10.0,South,4.6,-,N/A,,Clear,170,2012-11-10 12:51:00
8:51 AM,53.1,21.9,30,30.36,10.0,South,3.5,-,N/A,,Clear,190,2012-11-10 13:51:00
9:51 AM,57.9,25.0,28,30.35,10.0,SSW,4.6,-,N/A,,Clear,210,2012-11-10 14:51:00
10:51 AM,61.0,25.0,25,30.34,10.0,SSW,8.1,-,N/A,,Clear,210,2012-11-10 15:51:00
11:51 AM,60.1,23.0,24,30.33,10.0,WSW,6.9,-,N/A,,Clear,250,2012-11-10 16:51:00
12:51 PM,64.9,26.1,23,30.28,10.0,Variable,4.6,-,N/A,,Clear,0,2012-11-10 17:51:00
1:51 PM,66.0,32.0,28,30.28,10.0,SW,10.4,-,N/A,,Clear,230,2012-11-10 18:51:00
2:51 PM,66.0,32.0,28,30.27,10.0,SW,9.2,-,N/A,,Clear,220,2012-11-10 19:51:00
3:51 PM,66.9,32.0,27,30.26,10.0,SW,6.9,-,N/A,,Clear,220,2012-11-10 20:51:00
4:51 PM,64.9,33.1,31,30.26,10.0,SSW,3.5,-,N/A,,Clear,210,2012-11-10 21:51:00
5:51 PM,60.1,33.1,36,30.29,10.0,SSE,4.6,-,N/A,,Clear,150,2012-11-10 22:51:00
6:51 PM,57.9,32.0,37,30.31,10.0,SSE,4.6,-,N/A,,Clear,160,2012-11-10 23:51:00
7:51 PM,57.0,32.0,39,30.31,10.0,SSE,4.6,-,N/A,,Clear,150,2012-11-11 00:51:00
8:51 PM,57.0,33.1,40,30.30,10.0,SSE,6.9,-,N/A,,Clear,150,2012-11-11 01:51:00
9:51 PM,57.0,32.0,39,30.29,10.0,SSE,6.9,-,N/A,,Clear,150,2012-11-11 02:51:00
10:51 PM,57.0,30.0,36,30.29,10.0,SE,8.1,-,N/A,,Clear,140,2012-11-11 03:51:00
11:51 PM,57.0,28.9,34,30.28,10.0,SE,10.4,-,N/A,,Clear,140,2012-11-11 04:51:00